Regional Weather Roundup
Issued by NWS

Home | Current Version | Previous Version | Graphics & Text | Print | Product List | Glossary On
Versions: 1 2 3 4 5 6 7 8 9 10 11 12 13 14 15 16 17 18 19 20 21 22 23 24 25 26 27 28 29 30 31 32 33 34 35 36 37 38 39 40 41 42 43 44 45 46 47 48 49 50
000
ASUS43 KLSX 110310
RWRMO

WEATHER SUMMARY FOR MISSOURI
NATIONAL WEATHER SERVICE SPRINGFIELD MO
900 PM CST WED FEB 10 2016

NOTE: "FAIR" INDICATES FEW OR NO CLOUDS BELOW 12,000 FEET WITH NO
       SIGNIFICANT WEATHER AND/OR OBSTRUCTIONS TO VISIBILITY.
       CURRENT SKY AND/OR WEATHER CONDITIONS ARE NOT AVAILABLE FOR
       CHILLICOTHE AND FARMINGTON.

MOZ001>031-035>038-043-044-053-054-110400-
...NORTHERN AND WESTERN MISSOURI...

CITY           SKY/WX    TMP DP  RH WIND       PRES   REMARKS
KANSAS CTY INT PTCLDY    31  22  69 E15       30.01R WCI  20
KANSAS C DTWN  CLEAR     32  22  66 E8        30.01R WCI  25
LEE`S SUMMIT   CLEAR     31  20  63 E12       30.01R WCI  22
ST JOSEPH      CLOUDY    29  22  75 E8        30.05R WCI  21
CHILLICOTHE      N/A     26  20  77 E9        30.11R WCI  17
KIRKSVILLE     CLOUDY    21  16  81 E7        30.12R WCI  12

$$
MOZ066>068-077>081-088>096-101>105-110400-
...SOUTHWEST MISSOURI...

CITY           SKY/WX    TMP DP  RH WIND       PRES   REMARKS
SPRINGFIELD    CLEAR     35  20  54 SE7       29.97S WCI  29
JOPLIN         CLEAR     40  24  53 E7        29.94F

$$
MOZ032>034-039>042-045>050-055>058-069>072-110400-
...CENTRAL MISSOURI...

CITY           SKY/WX    TMP DP  RH WIND       PRES   REMARKS
COLUMBIA       CLOUDY    22  18  85 E9        30.07F WCI  12
JEFFERSON CITY CLOUDY    24  18  77 E6        30.10F WCI  17
ROLLA            N/A     23  18  81 E10       30.04F WCI  12
SEDALIA        CLEAR     26  19  74 E10       30.05F WCI  16
WHITEMAN AFB   PTCLDY    27  21  78 SE12      30.02S WCI  17
WARRENSBURG    CLEAR     28  21  74 E8        30.02F WCI  20
OSAGE BEACH    CLEAR     27  18  69 E7        30.05S WCI  19

$$
MOZ051-052-059>065-110400-
...EAST CENTRAL MISSOURI...

CITY           SKY/WX    TMP DP  RH WIND       PRES   REMARKS
ST LOUIS INTL  FLURRIES  24  18  77 E5        30.15F WCI  18
SPIRIT OF STL  CLOUDY    23  19  85 CALM      30.14F
ST CHARLES     CLOUDY    22  18  85 E6        30.16S WCI  14

$$
MOZ072>076-082>087-097>100-106>115-110400-
...SOUTH CENTRAL AND SOUTHEAST MISSOURI...

CITY           SKY/WX    TMP DP  RH WIND       PRES   REMARKS
CAPE GIRARDEAU CLOUDY    25  20  81 E7        30.18S WCI  17
FARMINGTON     CLOUDY    24  18  77 SE5       30.12F WCI  18
POPLAR BLUFF   CLEAR     26  18  71 E6        30.14F WCI  19
WEST PLAINS    CLEAR     31  10  41 E8        30.06S WCI  23

$$



USA.gov is the U.S. government's official web portal to all federal, state and local government web resources and services.